TIANWANG 1A (TW-1A)
1 40928U 15051D   20006.55074186  .00002171  00000-0  53157-4 0  9995
2 40928  97.1276  38.2789 0012526  64.4500  88.1022 15.41762318240262
LAPAN A2
1 40931U 15052B   20002.58753715  .00000638  00000-0 -24146-6 0  9996
2 40931   5.9928  85.5229 0013528  76.7647 283.7111 14.76622055230555
LQSAT
1 40958U 15057A   20006.16697934  .00000033  00000-0  12793-4 0  9999
2 40958  97.8763  74.6658 0017131 317.8631  42.1260 14.73103018228461
CHUBUSAT 2
1 41338U 16012B   20006.16362818  .00000284  00000-0  15297-4 0  9994
2 41338  31.0039 304.3261 0013802 298.3835  61.5409 15.00227551213197
CHUBUSAT 3
1 41339U 16012C   20006.50907898  .00000272  00000-0  14333-4 0  9993
2 41339  31.0133 299.9663 0013774 310.2908  49.6535 15.00397370213241
OUFTI-1
1 41458U 16025C   20005.83581969  .00000959  00000-0  52066-4 0  9998
2 41458  98.0994 107.9377 0165743  40.9439 320.4095 15.06358167202843
E-STAR-2
1 41459U 16025D   20006.36751232  .00000284  00000-0  18705-4 0  9993
2 41459  98.0989 108.0347 0167188  40.7334 320.6259 15.05955377202898
AAUSAT 4
1 41460U 16025E   20006.54376168  .00001510  00000-0  78072-4 0  9992
2 41460  98.0975 110.0097 0156428  30.9315 330.0985 15.08061167203086
NUSAT 1
1 41557U 16033B   20006.49492842  .00001181  00000-0  46393-4 0  9995
2 41557  97.4111  97.7973 0012309 308.8458  51.1682 15.27643033200896
BEESAT 4
1 41619U 16040W   20006.43861095  .00001386  00000-0  60739-4 0  9993
2 41619  97.3435  69.6627 0012164  41.0603 319.1548 15.23590478184578
PRATHAM
1 41783U 16059A   20005.88007604 +.00000012 +00000-0 +11557-4 0  9990
2 41783 098.0420 065.7299 0034832 110.6357 249.8586 14.63029985174965
ALSAT 1N
1 41789U 16059G   20006.24333175  .00000050  00000-0  18337-4 0  9997
2 41789  98.0448  68.5276 0029684  98.3936 262.0635 14.64288060175146
NAYIF 1
1 42017U 17008BX  20006.43205614  .00001558  00000-0  63320-4 0  9990
2 42017  97.3816  76.2403 0006579 163.7556 196.3894 15.26035313160682
MAX VALIER SAT
1 42778U 17036P   20005.88493789 +.00000750 +00000-0 +35460-4 0  9992
2 42778 097.3295 063.8494 0011030 232.5747 127.4487 15.22333834140848
